Location: Blue Sky Observatory
(43.1153°N, 70.9036°W)
Time: 02:28:31
(UTC-04:00)

Daily predictions for brighter satellites

Satellite Brightness Start Highest point End
(mag) Time Altitude Azimuth Time Altitude Azimuth Time Altitude Azimuth
Cosmos 2074 Rocket 4.4 00:08:02 59° NNW 00:08:02 59° NNW 00:13:07 10° N
COSMOS 2455 3.5 00:01:54 10° NNW 00:06:25 52° NNW 00:06:25 52° NNW
Cosmos 2333 Rocket 3.7 00:07:43 28° WNW 00:08:28 29° NW 00:13:23 10° N
Cosmos 1943 Rocket 4.4 00:06:30 10° N 00:09:36 15° NE 00:10:50 14° ENE
Terra 4.5 00:12:27 11° WNW 00:12:27 11° WNW 00:13:13 10° WNW
Cosmos 2237 Rocket 3.7 00:27:23 30° NW 00:27:24 30° NW 00:32:20 10° N
Cosmos 2369 Rocket 3.6 00:24:23 10° N 00:28:53 31° NE 00:28:53 31° NE
Mayak 1.4 01:10:42 10° N 01:11:52 17° NNW 01:11:52 17° NNW
CENTAUR R/B 4.2 01:12:40 10° NW 01:17:32 30° W 01:17:32 30° W
USA 215 3.7 01:31:04 52° NW 01:31:04 52° NW 01:35:52 10° NW
SL-8 Rocket 4.5 01:35:18 55° NNW 01:35:18 55° NNW 01:40:16 10° N
SL-16 R/B 4.0 01:35:36 22° NW 01:35:48 22° NW 01:40:06 10° N
ADEOS Rocket 4.1 01:38:17 10° NNE 01:42:17 32° ENE 01:42:17 32° ENE
Cosmos 2218 Rocket 4.4 01:45:01 60° NNW 01:45:01 60° NNW 01:50:23 10° N
Resurs 1-4 Rocket 4.3 01:45:20 10° NE 01:48:27 16° E 01:48:27 16° E
SL-16 R/B 4.1 01:48:13 21° E 01:50:53 29° ENE 01:56:06 10° N
Cosmos 1943 Rocket 3.1 01:48:41 10° NNW 01:52:18 42° NNW 01:52:18 42° NNW
CZ-2D R/B 3.9 02:01:39 10° NE 02:05:47 22° E 02:05:56 22° E
Cosmos 2369 Rocket 3.9 02:08:17 10° NW 02:10:38 23° NW 02:10:38 23° NW
Cosmos 2239 Rocket 4.5 02:24:54 74° ESE 02:24:59 74° E 02:31:17 10° NNE
Cosmos 1943 4.1 02:26:52 40° NW 02:26:52 40° NW 02:31:41 10° NNE
Cosmos 2221 4.0 02:30:37 33° ENE 02:30:37 33° ENE 02:33:40 10° NNE
BREEZE-M DEB (TANK) 4.3 02:33:30 26° ENE 02:33:30 26° ENE 02:35:57 10° ENE
Cosmos 540 Rocket 3.9 02:33:40 57° ENE 02:33:40 57° ENE 02:37:56 10° NNE
Cosmos 1763 Rocket 4.4 02:35:40 39° NNW 02:35:40 39° NNW 02:39:27 10° N
Cosmos 1535 Rocket 4.4 02:35:43 78° SE 02:36:03 82° E 02:42:29 10° N
CBERS-1 4.2 02:34:48 10° NNE 02:39:18 68° NE 02:39:18 68° NE
AQUA 4.3 02:38:33 10° NNE 02:42:30 60° NNE 02:42:30 60° NNE
Cosmos 1726 4.4 02:47:58 21° ENE 02:47:58 21° ENE 02:50:24 10° NE
UNK 4.1 02:51:39 61° NNE 02:51:39 61° NNE 02:55:36 10° N
Cosmos 2098 Rocket 3.5 02:52:43 83° NNW 02:52:43 83° NNW 02:57:26 10° N
Cosmos 2285 Rocket 4.3 02:58:36 49° SSE 03:00:01 60° ESE 03:06:19 10° NNE
Cosmos 1125 Rocket 4.0 02:56:12 10° NNW 03:00:09 49° NW 03:00:09 49° NW
Lacrosse 5 3.7 03:00:30 10° NW 03:05:01 31° NNE 03:09:31 10° E
SL-08 R/B 4.4 03:06:43 34° NW 03:06:43 34° NW 03:09:43 10° NNW
Sich 1 3.9 03:03:39 10° N 03:07:53 45° ENE 03:08:38 41° ESE
UNKNOWN OBJECT B 4.3 03:04:25 10° NNE 03:08:05 31° E 03:08:26 31° ESE
USA 229 DEB 3.7 03:01:05 10° NW 03:08:15 78° WSW 03:15:34 10° SSE
USA 229 3.7 03:01:12 10° NW 03:08:22 78° WSW 03:15:40 10° SSE
NPP 3.9 03:04:04 10° N 03:09:18 53° WNW 03:09:18 53° WNW
IRS-1C 4.0 03:04:07 10° N 03:09:27 72° WNW 03:09:39 71° W
ERS-1 4.3 03:04:58 10° NNE 03:09:58 83° ESE 03:10:10 80° SSE
BREEZE M DEB (TANK) 2.8 03:10:46 68° ESE 03:10:46 68° ESE 03:17:51 10° ESE
Cosmos 1400 Rocket 3.9 03:09:04 10° NNW 03:11:36 38° NNW 03:11:36 38° NNW
Cosmos 2123 Rocket 4.0 03:19:19 10° NNW 03:25:26 56° W 03:26:21 51° SW
COSMOS 2406 3.1 03:25:16 60° WSW 03:26:14 74° WNW 03:31:57 10° NNE
Resurs 1-4 Rocket 2.0 03:23:32 10° N 03:28:46 68° WNW 03:29:31 59° WSW
ADEOS Rocket 3.6 03:23:56 10° N 03:28:46 33° WNW 03:29:13 32° WNW
SL-16 R/B 2.7 03:33:18 46° SW 03:34:12 50° W 03:40:14 10° NNW
Cosmos 1934 Rocket 4.4 03:37:08 38° W 03:37:59 40° WNW 03:43:40 10° N
Cosmos 1633 Rocket 3.0 03:34:56 10° N 03:39:19 82° E 03:40:27 49° SSE
ARIANE 5 R/B 2.6 03:35:36 10° N 03:40:47 63° WNW 03:41:55 50° SW
Cosmos 2228 Rocket 3.9 03:39:27 26° SSE 03:41:33 47° E 03:45:49 10° NNE
NOSS 3-1 (C) 4.0 03:34:20 10° NW 03:41:57 90° NE 03:50:22 10° SE
Cosmos 1300 2.6 03:43:27 72° SSE 03:43:46 80° E 03:47:36 10° N
CZ-2D R/B 2.4 03:40:58 10° N 03:46:08 49° WNW 03:47:15 42° WSW
Cosmos 1697 Rocket 4.5 03:48:05 10° N 03:53:10 33° NE 03:58:13 10° ESE
Cosmos 1605 Rocket 4.5 03:53:59 35° WSW 03:55:58 44° WNW 04:02:04 10° N
SL-27 R/B 2.9 03:58:50 44° NW 03:58:50 44° NW 04:01:57 10° N
Cosmos 1455 4.3 03:56:48 10° SE 03:59:54 25° E 04:03:00 10° NE
Cosmos 1328 Rocket 3.4 04:00:51 37° S 04:02:31 87° W 04:06:54 10° N
Cosmos 2061 Rocket 4.1 03:58:52 16° S 04:04:06 80° E 04:10:33 10° N
MOS 1 Rocket 4.0 04:02:42 10° N 04:06:36 33° WNW 04:07:17 31° W
Cosmos 2221 4.2 04:07:30 19° WNW 04:07:30 19° WNW 04:10:31 10° NNW
Cosmos 2082 Rocket 3.0 04:07:33 13° S 04:12:19 46° ESE 04:17:42 10° NE
Cosmos 773 Rocket 4.0 04:10:42 28° SSW 04:13:35 82° WNW 04:18:55 10° NNE
Cosmos 1666 Rocket 4.2 04:10:01 10° NNW 04:14:01 34° W 04:14:34 33° WSW
Cosmos 2016 Rocket 4.1 04:09:11 11° S 04:15:07 77° E 04:21:14 10° N
ADEOS II 2.6 04:10:37 10° NNE 04:15:49 60° E 04:21:00 10° S
Cosmos 1315 Rocket 3.8 04:15:22 10° NNW 04:18:35 27° W 04:18:35 27° W
Cosmos 1726 3.5 04:22:36 23° WNW 04:22:41 23° WNW 04:25:42 10° NNW
Cosmos 1933 Rocket 3.5 04:18:28 10° NNW 04:22:56 76° W 04:27:22 10° S
PSLV R/B 3.6 04:25:14 38° SSW 04:25:30 40° SSW 04:28:34 10° SE
COSMOS 2487 2.9 04:25:53 19° S 04:28:16 60° ESE 04:31:47 10° NNE
Cosmos 1725 Rocket 4.2 04:23:09 10° S 04:29:16 70° E 04:35:25 10° NNE
Meteor 2-3 Rocket 3.7 04:23:52 10° N 04:29:33 90° ENE 04:35:15 10° S
CZ-4B R/B 4.3 04:24:57 10° NNE 04:30:09 43° E 04:35:14 10° S
Cosmos 1151 Rocket 2.9 04:28:06 18° SSW 04:31:14 75° W 04:35:32 10° N
Tiangong 2 2.0 04:30:19 29° SSW 04:31:18 37° SSE 04:34:19 10° E
Cosmos 2100 Rocket 4.3 04:29:51 18° SSW 04:34:30 51° WNW 04:40:42 10° N
Cosmos 1802 Rocket 4.0 04:29:14 14° SSW 04:34:35 64° W 04:40:52 10° N
PSLV R/B 4.0 04:31:08 10° NNE 04:35:18 78° ESE 04:39:25 10° S
Cosmos 2369 3.7 04:35:31 10° NNW 04:41:05 61° WSW 04:46:38 10° S
Cosmos 1656 3.6 04:35:35 10° NNW 04:41:19 79° WSW 04:47:00 10° SSE
Cosmos 1892 2.7 04:37:45 10° NNW 04:41:33 62° W 04:45:21 10° S
Okean O Rocket 2.0 04:37:15 10° NNE 04:41:40 65° ESE 04:46:01 10° S
UNKNOWN OBJECT B 4.3 04:39:14 10° NNW 04:42:24 22° WNW 04:43:54 18° W
Landsat 4 4.4 04:40:49 10° SSE 04:44:28 57° ENE 04:48:10 10° N
Shenzhou-11 Module 2.3 04:43:41 25° SW 04:45:11 55° SSE 04:48:14 10° E
Lacrosse 5 1.8 04:43:17 10° NW 04:48:19 66° SW 04:53:20 10° SSE
Cosmos 192 4.3 04:43:47 12° SSW 04:48:20 79° WNW 04:53:20 10° NNE
Cosmos 1825 3.6 04:48:07 10° N 04:51:46 41° ENE 04:55:22 10° SSE
Tsikada Rocket 4.0 04:47:21 10° N 04:53:42 81° W 05:00:04 10° S
Cosmos 1408 3.7 04:51:21 10° N 04:54:51 47° ENE 04:58:20 10° SSE
Hubble Space Telescope 3.1 04:54:38 10° S 04:55:12 10° S 04:55:46 10° S
Meteor 1-27 4.4 04:51:20 10° SSW 04:56:53 57° WNW 05:02:25 10° N
ATLAS 2AS CENTAUR R/B 3.9 04:50:04 10° NNW 04:57:58 54° NE 05:05:18 10° ESE
CZ-4B R/B 3.2 04:56:15 10° N 05:00:41 65° WNW 05:05:11 10° SSW
NOSS 3-1 (A) 4.4 04:56:59 10° NW 05:04:11 43° WSW 05:12:00 10° S
Cosmos 1371 Rocket 4.3 04:59:39 10° NNW 05:04:54 74° ENE 05:10:10 10° SSE
Cosmos 1833 Rocket 2.8 05:01:28 10° SW 05:07:04 67° WNW 05:12:43 10° NNE
MTI 4.5 05:10:46 10° SSE 05:13:55 59° ENE 05:17:06 10° N
ATLAS 5 CENTAUR R/B 4.4 05:13:06 10° SE 05:15:33 14° ESE 05:18:06 10° ENE
Cosmos 1624 Rocket 4.1 05:15:35 10° NNW 05:20:53 84° ENE 05:26:05 10° SSE
Cosmos 1980 Rocket 2.2 05:16:47 10° NNW 05:22:26 88° WSW 05:28:03 10° SSE
USA 234 4.1 05:20:51 10° ENE 05:27:08 47° SE 05:33:22 10° SSW
Cosmos 1869 Rocket 3.8 05:24:19 10° NNW 05:28:40 51° W 05:32:57 10° SSW
IRS-1C Rocket 4.2 05:25:52 10° N 05:31:03 60° WNW 05:36:12 10° SSW
Cosmos 1680 Rocket 4.2 05:27:18 10° SW 05:32:13 38° WNW 05:37:11 10° N
Timation 2 Rocket 4.0 05:26:47 10° SSW 05:32:46 90° W 05:38:59 10° NNE
